Date,TemperatureHighF,TemperatureAvgF,TemperatureLowF,DewpointHighF,DewpointAvgF,DewpointLowF,HumidityHigh,HumidityAvg,HumidityLow,PressureMaxIn,PressureMinIn,WindSpeedMaxMPH,WindSpeedAvgMPH,GustSpeedMaxMPH,PrecipitationSumIn
2013-2-1,17.0,14.3,9.0,14.8,12.1,4.6,96,91,82,30.18,29.71,24,10,26,0.00
2013-2-2,17.0,13.0,9.0,15.1,8.9,2.7,92,83,75,30.19,29.89,16,4,19,0.00
2013-2-3,21.0,16.1,12.0,18.0,13.3,9.7,96,89,67,29.90,29.73,21,4,23,0.00
2013-2-4,21.0,16.3,13.0,16.8,13.5,10.1,95,89,78,29.94,29.83,25,4,27,0.00
2013-2-5,26.0,20.1,11.0,19.7,15.9,9.6,95,84,67,29.87,29.77,16,2,18,0.00
2013-2-6,26.0,20.3,6.0,24.0,15.8,3.9,96,83,61,30.32,29.85,14,4,18,0.00
2013-2-7,39.0,23.5,3.0,23.7,15.8,1.0,94,74,52,30.30,29.96,22,4,22,0.01
2013-2-8,34.0,27.0,14.0,33.2,24.0,11.9,97,88,73,30.08,29.70,29,7,30,0.30
2013-2-9,25.0,15.6,5.0,17.3,11.9,3.2,94,85,66,30.36,30.08,12,2,13,0.04
2013-2-10,46.0,23.9,0.0,20.6,11.3,-2.0,93,65,28,30.33,29.91,21,4,24,0.16
2013-2-11,48.0,36.4,30.0,42.7,30.6,19.2,97,80,50,29.92,29.60,31,10,37,0.08
2013-2-12,31.0,28.6,27.0,26.2,23.5,21.1,89,81,75,29.98,29.78,33,10,36,0.00
2013-2-13,40.0,29.2,24.0,25.1,23.1,21.0,92,79,52,29.88,29.66,12,2,14,0.00
2013-2-14,35.0,29.2,21.0,33.7,26.6,18.8,96,90,80,29.87,29.78,21,5,23,0.16
2013-2-15,35.0,29.1,21.0,32.1,22.5,13.4,89,76,65,30.03,29.79,31,8,32,0.00
2013-2-16,26.0,19.4,9.0,17.6,10.8,4.4,88,70,48,30.03,29.87,15,2,18,0.00
2013-2-17,16.0,13.3,9.0,13.6,9.2,5.4,94,84,69,30.16,29.86,20,4,26,0.00
2013-2-18,40.0,24.1,7.0,24.6,12.1,4.0,90,63,38,30.22,29.84,16,4,16,0.02
2013-2-19,42.0,31.4,18.0,37.2,26.5,12.6,98,83,51,29.84,29.56,32,10,32,0.28
2013-2-20,18.0,15.9,14.0,15.1,12.8,9.2,95,87,75,30.08,29.79,32,11,32,0.00
2013-2-21,22.0,16.0,10.0,15.6,12.1,7.2,94,84,68,30.34,30.06,16,4,19,0.00
2013-2-22,31.0,25.0,16.0,28.2,20.8,13.3,93,85,61,30.30,29.96,26,7,32,0.00
2013-2-23,35.0,29.5,26.0,32.2,27.3,21.6,97,91,83,29.97,29.84,20,4,20,0.11
2013-2-24,27.0,25.9,24.0,23.2,21.2,18.8,89,82,72,30.09,29.83,22,7,24,0.00
2013-2-25,38.0,27.4,21.0,25.3,21.2,18.2,95,79,52,30.20,30.08,9,2,11,0.02
2013-2-26,38.0,30.0,19.0,33.5,24.9,16.3,98,82,58,30.13,29.61,29,6,30,0.56
2013-2-27,37.0,34.6,32.0,36.5,33.1,31.2,99,94,86,29.61,29.53,21,4,24,0.57
2013-2-28,33.0,31.0,29.0,31.8,29.8,27.7,99,95,88,29.74,29.52,12,4,16,0.01